GW3294 Weather Reports


Display with metric or nautical units.
time (UTC)temp
F
wind
direction
speed
MPH
gust
MPH
rain 1hr
in
rain 24hr
in
rain mn
in
humidity
%
barometer
mb
20260904212254 104 249 0.0 4.0 0.00 0.00 0.00 39 1015.7
20260904211749 105 232 4.0 4.0 0.00 0.00 0.00 37 1015.8
20260904211244 106 271 2.0 3.0 0.00 0.00 0.00 37 1015.7
20260904210739 105 315 0.0 3.0 0.00 0.00 0.00 38 1015.9
20260904210233 103 273 2.0 5.0 0.00 0.00 0.00 39 1016.1
20260904205730 105 315 2.0 5.0 0.00 0.00 0.00 38 1016.1
20260904205225 105 129 0.0 3.0 0.00 0.00 0.00 39 1016.3
20260904204722 105 233 1.0 3.0 0.00 0.00 0.00 41 1016.3
20260904204217 106 252 2.0 3.0 0.00 0.00 0.00 41 1016.1
20260904203713 103 149 0.0 2.0 0.00 0.00 0.00 41 1016.3
20260904203210 101 288 2.0 4.0 0.00 0.00 0.00 40 1016.7
20260904202705 100 332 1.0 7.0 0.00 0.00 0.00 41 1016.5
20260904202155 105 239 2.0 4.0 0.00 0.00 0.00 37 1016.6
20260904201650 102 137 2.0 5.0 0.00 0.00 0.00 40 1016.4
20260904201145 102 204 1.0 7.0 0.00 0.00 0.00 37 1016.6
20260904200644 102 115 4.0 7.0 0.00 0.00 0.00 38 1016.6
20260904200139 103 234 1.0 5.0 0.00 0.00 0.00 38 1016.9
20260904195638 104 255 2.0 5.0 0.00 0.00 0.00 39 1016.9
20260904195137 101 253 2.0 3.0 0.00 0.00 0.00 42 1016.8
20260904194632 101 241 2.0 6.0 0.00 0.00 0.00 42 1017.0
20260904194126 102 141 2.0 3.0 0.00 0.00 0.00 42 1017.1
20260904193621 102 267 2.0 4.0 0.00 0.00 0.00 42 1017.3
20260904193118 102 253 2.0 3.0 0.00 0.00 0.00 46 1017.5
20260904192617 99 124 0.0 2.0 0.00 0.00 0.00 46 1017.4
20260904192113 99 274 3.0 4.0 0.00 0.00 0.00 48 1017.3
20260904191604 100 325 1.0 3.0 0.00 0.00 0.00 48 1017.4
20260904191100 102 222 2.0 2.0 0.00 0.00 0.00 44 1017.3
20260904190555 99 38 0.0 3.0 0.00 0.00 0.00 51 1017.5
20260904190052 99 174 2.0 3.0 0.00 0.00 0.00 48 1017.7
20260904185548 100 78 0.0 4.0 0.00 0.00 0.00 48 1017.5
20260904185042 99 103 0.0 3.0 0.00 0.00 0.00 46 1017.8
20260904184536 98 135 0.0 1.0 0.00 0.00 0.00 49 1017.5
20260904184032 98 281 2.0 2.0 0.00 0.00 0.00 51 1017.7
20260904183527 99 268 1.0 3.0 0.00 0.00 0.00 49 1017.6
20260904183022 101 180 2.0 3.0 0.00 0.00 0.00 44 1017.6
20260904182517 99 244 0.0 3.0 0.00 0.00 0.00 50 1017.6
20260904182017 99 267 2.0 5.0 0.00 0.00 0.00 45 1017.7
20260904181513 101 253 2.0 2.0 0.00 0.00 0.00 46 1018.1
20260904181007 98 144 1.0 3.0 0.00 0.00 0.00 49 1017.7
20260904180507 101 277 4.0 6.0 0.00 0.00 0.00 45 1018.0
20260904180003 101 220 0.0 3.0 0.00 0.00 0.00 47 1018.0
20260904175502 102 272 2.0 3.0 0.00 0.00 0.00 44 1018.0
20260904174956 99 241 3.0 5.0 0.00 0.00 0.00 47 1018.1
20260904174451 100 197 3.0 4.0 0.00 0.00 0.00 46 1018.1
20260904173948 99 92 2.0 7.0 0.00 0.00 0.00 49 1018.1
20260904173447 102 256 3.0 5.0 0.00 0.00 0.00 45 1018.4
20260904172943 101 221 1.0 3.0 0.00 0.00 0.00 46 1018.4
20260904172438 100 214 1.0 6.0 0.00 0.00 0.00 49 1018.2
20260904171932 100 168 3.0 9.0 0.00 0.00 0.00 46 1018.4
20260904171428 102 269 4.0 5.0 0.00 0.00 0.00 43 1018.4
20260904170924 100 290 2.0 5.0 0.00 0.00 0.00 46 1018.5
20260904170419 99 269 2.0 5.0 0.00 0.00 0.00 49 1018.6
20260904165914 99 270 2.0 6.0 0.00 0.00 0.00 49 1018.5
20260904165413 100 265 4.0 5.0 0.00 0.00 0.00 46 1018.6
20260904164912 100 95 1.0 4.0 0.00 0.00 0.00 48 1018.6
20260904164407 98 62 0.0 5.0 0.00 0.00 0.00 49 1018.7
20260904163903 98 327 2.0 4.0 0.00 0.00 0.00 50 1018.6
20260904163402 98 286 0.0 5.0 0.00 0.00 0.00 51 1018.6
20260904162902 98 180 0.0 5.0 0.00 0.00 0.00 50 1018.5
20260904162357 97 149 2.0 5.0 0.00 0.00 0.00 52 1018.5
20260904161852 98 128 0.0 4.0 0.00 0.00 0.00 53 1018.5
20260904161347 97 224 1.0 4.0 0.00 0.00 0.00 54 1018.6
20260904160843 97 184 3.0 5.0 0.00 0.00 0.00 53 1018.5
20260904160338 95 158 2.0 6.0 0.00 0.00 0.00 55 1018.7
20260904155833 95 213 3.0 4.0 0.00 0.00 0.00 59 1018.8
20260904155327 95 185 2.0 4.0 0.00 0.00 0.00 59 1018.7
20260904154826 94 236 0.0 4.0 0.00 0.00 0.00 58 1018.5
20260904154321 95 175 2.0 5.0 0.00 0.00 0.00 56 1018.5
20260904153817 93 245 4.0 5.0 0.00 0.00 0.00 59 1018.6
20260904153307 93 254 0.0 5.0 0.00 0.00 0.00 59 1018.6
20260904152803 93 254 4.0 7.0 0.00 0.00 0.00 59 1018.7
20260904152258 92 148 3.0 4.0 0.00 0.00 0.00 60 1018.4
20260904151753 92 175 2.0 5.0 0.00 0.00 0.00 61 1018.5
20260904151251 91 309 4.0 5.0 0.00 0.00 0.00 62 1018.7
20260904150748 91 262 3.0 5.0 0.00 0.00 0.00 63 1018.6
20260904150243 90 217 1.0 6.0 0.00 0.00 0.00 63 1018.4
20260904145741 89 278 2.0 5.0 0.00 0.00 0.00 64 1018.5
20260904145237 90 289 2.0 5.0 0.00 0.00 0.00 65 1018.5
20260904144732 89 344 0.0 8.0 0.00 0.00 0.00 64 1018.4
20260904144228 89 206 2.0 6.0 0.00 0.00 0.00 66 1018.4
20260904143723 88 0 0.0 8.0 0.00 0.00 0.00 67 1018.4
20260904143220 88 301 1.0 4.0 0.00 0.00 0.00 67 1018.3
20260904142716 88 170 3.0 7.0 0.00 0.00 0.00 67 1018.3
20260904142211 88 309 0.0 4.0 0.00 0.00 0.00 68 1018.3
20260904141710 87 243 0.0 6.0 0.00 0.00 0.00 70 1018.3
20260904141206 86 176 2.0 6.0 0.00 0.00 0.00 72 1018.3
20260904140701 85 257 3.0 6.0 0.00 0.00 0.00 72 1018.3
20260904140156 84 205 1.0 5.0 0.00 0.00 0.00 74 1018.3
20260904135655 84 180 0.0 2.0 0.00 0.00 0.00 75 1018.4
20260904135151 83 304 0.0 2.0 0.00 0.00 0.00 77 1018.4
20260904134647 83 265 0.0 3.0 0.00 0.00 0.00 77 1018.4
20260904134146 82 284 0.0 1.0 0.00 0.00 0.00 77 1018.3
20260904133641 82 291 1.0 3.0 0.00 0.00 0.00 78 1018.4
20260904133137 81 202 0.0 2.0 0.00 0.00 0.00 80 1018.4
20260904132631 80 244 1.0 2.0 0.00 0.00 0.00 82 1018.3
20260904132126 80 310 1.0 1.0 0.00 0.00 0.00 82 1018.4
20260904131626 79 191 0.0 2.0 0.00 0.00 0.00 83 1018.5
20260904131122 78 157 0.0 2.0 0.00 0.00 0.00 87 1018.3
20260904130621 77 149 0.0 3.0 0.00 0.00 0.00 88 1018.4
20260904130116 76 37 0.0 1.0 0.00 0.00 0.00 91 1018.4
20260904125613 76 124 0.0 2.0 0.00 0.00 0.00 92 1018.5
20260904125112 75 104 0.0 2.0 0.00 0.00 0.00 92 1018.5
20260904124608 75 173 0.0 2.0 0.00 0.00 0.00 92 1018.3
20260904124103 75 109 0.0 2.0 0.00 0.00 0.00 93 1018.3
20260904123603 75 129 0.0 1.0 0.00 0.00 0.00 93 1018.2
20260904123100 74 116 0.0 1.0 0.00 0.00 0.00 94 1017.9
20260904122600 74 141 0.0 1.0 0.00 0.00 0.00 94 1018.1
20260904122055 74 154 0.0 1.0 0.00 0.00 0.00 93 1018.1
20260904121550 74 119 0.0 0.0 0.00 0.00 0.00 93 1018.2
20260904121046 74 142 0.0 2.0 0.00 0.00 0.00 93 1018.0
20260904120542 74 124 0.0 1.0 0.00 0.00 0.00 93 1018.1
20260904120037 74 89 0.0 1.0 0.00 0.00 0.00 92 1017.9
20260904115532 73 89 0.0 1.0 0.00 0.00 0.00 93 1017.9
20260904115027 74 117 0.0 1.0 0.00 0.00 0.00 93 1017.9
20260904114522 74 124 0.0 2.0 0.00 0.00 0.00 94 1017.8
20260904114021 74 135 0.0 1.0 0.00 0.00 0.00 94 1018.0
20260904113516 74 122 1.0 2.0 0.00 0.00 0.00 94 1017.8
20260904113016 74 89 0.0 2.0 0.00 0.00 0.00 94 1017.7
20260904112511 74 135 0.0 2.0 0.00 0.00 0.00 94 1017.8
20260904112007 74 89 0.0 2.0 0.00 0.00 0.00 93 1017.6
20260904111503 74 119 0.0 2.0 0.00 0.00 0.00 93 1017.5
20260904110958 74 147 0.0 1.0 0.00 0.00 0.00 93 1017.4
20260904110457 74 309 0.0 1.0 0.00 0.00 0.00 92 1017.4
20260904105953 75 119 0.0 1.0 0.00 0.00 0.00 92 1017.5
20260904105452 75 164 0.0 2.0 0.00 0.00 0.00 92 1017.3
20260904104947 75 341 0.0 2.0 0.00 0.00 0.00 92 1017.2
20260904104442 74 122 1.0 1.0 0.00 0.00 0.00 91 1017.4
20260904103933 75 11 0.0 1.0 0.00 0.00 0.00 91 1017.3
20260904103428 75 139 0.0 1.0 0.00 0.00 0.00 91 1017.2
20260904102924 75 147 0.0 2.0 0.00 0.00 0.00 91 1017.1
20260904102419 75 157 0.0 2.0 0.00 0.00 0.00 90 1017.4
20260904101910 75 154 0.0 1.0 0.00 0.00 0.00 91 1017.1
20260904101406 75 134 0.0 1.0 0.00 0.00 0.00 91 1017.1
20260904100902 75 129 0.0 1.0 0.00 0.00 0.00 90 1016.9
20260904100357 75 147 0.0 1.0 0.00 0.00 0.00 91 1017.1
20260904095851 75 180 0.0 1.0 0.00 0.00 0.00 91 1017.0
20260904095346 75 135 0.0 2.0 0.00 0.00 0.00 90 1017.0
20260904094841 75 113 0.0 2.0 0.00 0.00 0.00 90 1017.1
20260904094336 75 141 0.0 1.0 0.00 0.00 0.00 90 1017.0
20260904093832 75 127 0.0 1.0 0.00 0.00 0.00 90 1016.9
20260904093327 75 117 0.0 0.0 0.00 0.00 0.00 90 1016.9
20260904092822 76 135 1.0 2.0 0.00 0.00 0.00 91 1017.0
20260904092319 76 122 0.0 1.0 0.00 0.00 0.00 91 1016.7
20260904091814 76 101 0.0 1.0 0.00 0.00 0.00 90 1016.8
20260904091309 76 119 0.0 2.0 0.00 0.00 0.00 89 1016.8
20260904090804 77 166 0.0 2.0 0.00 0.00 0.00 89 1016.8
20260904090300 77 117 0.0 1.0 0.00 0.00 0.00 88 1016.8
20260904085755 77 129 0.0 1.0 0.00 0.00 0.00 88 1016.7
20260904085250 77 129 0.0 2.0 0.00 0.00 0.00 88 1016.7
20260904084744 77 124 0.0 1.0 0.00 0.00 0.00 88 1016.9
20260904084240 77 89 0.0 1.0 0.00 0.00 0.00 87 1016.6
20260904083736 77 161 1.0 2.0 0.00 0.00 0.00 87 1016.6
20260904083232 77 174 0.0 2.0 0.00 0.00 0.00 88 1016.7
20260904082727 77 115 1.0 2.0 0.00 0.00 0.00 88 1016.7
20260904082222 77 153 0.0 2.0 0.00 0.00 0.00 88 1016.6
20260904081717 77 142 0.0 1.0 0.00 0.00 0.00 87 1016.6
20260904081213 77 147 0.0 1.0 0.00 0.00 0.00 87 1016.7
20260904080709 77 74 0.0 1.0 0.00 0.00 0.00 88 1016.4
20260904080204 77 129 0.0 1.0 0.00 0.00 0.00 88 1016.6
20260904075701 77 117 0.0 1.0 0.00 0.00 0.00 88 1016.7
20260904075200 77 62 0.0 2.0 0.00 0.00 0.00 88 1016.6
20260904074654 77 122 0.0 1.0 0.00 0.00 0.00 87 1016.5
20260904074149 77 229 0.0 1.0 0.00 0.00 0.00 85 1016.4
20260904073644 77 152 0.0 1.0 0.00 0.00 0.00 86 1016.7
20260904073141 77 62 0.0 0.0 0.00 0.00 0.00 87 1016.7
20260904072636 77 135 0.0 1.0 0.00 0.00 0.00 87 1016.6
20260904072130 78 142 0.0 1.0 0.00 0.00 0.00 87 1016.6
20260904071621 78 129 0.0 2.0 0.00 0.00 0.00 86 1016.6
20260904071120 78 142 0.0 1.0 0.00 0.00 0.00 85 1016.5
20260904070614 78 124 0.0 0.0 0.00 0.00 0.00 84 1016.7
20260904070109 78 142 0.0 0.0 0.00 0.00 0.00 85 1016.6
20260904065604 78 104 0.0 1.0 0.00 0.00 0.00 84 1016.4
20260904065101 79 142 0.0 1.0 0.00 0.00 0.00 84 1016.5
20260904064556 79 142 0.0 1.0 0.00 0.00 0.00 85 1016.6
20260904064056 79 62 0.0 1.0 0.00 0.00 0.00 84 1016.3
20260904063552 79 168 0.0 2.0 0.00 0.00 0.00 84 1016.7
20260904063047 79 160 0.0 1.0 0.00 0.00 0.00 83 1016.7
20260904062543 80 175 0.0 1.0 0.00 0.00 0.00 83 1016.7
20260904062038 80 51 0.0 1.0 0.00 0.00 0.00 81 1016.9
20260904061534 80 175 0.0 2.0 0.00 0.00 0.00 81 1016.7
20260904061031 81 171 0.0 1.0 0.00 0.00 0.00 80 1016.7
20260904060527 82 154 0.0 1.0 0.00 0.00 0.00 78 1016.8
20260904060022 82 164 0.0 2.0 0.00 0.00 0.00 78 1016.6
20260904055517 82 142 0.0 0.0 0.00 0.00 0.00 78 1016.8
20260904055013 83 166 0.0 0.0 0.00 0.00 0.00 76 1016.5
20260904054508 83 284 0.0 0.0 0.00 0.00 0.00 75 1016.5
20260904054004 83 142 0.0 1.0 0.00 0.00 0.00 73 1016.6
20260904053503 83 173 0.0 2.0 0.00 0.00 0.00 75 1016.8
20260904052959 83 211 0.0 2.0 0.00 0.00 0.00 74 1016.5
20260904052455 82 135 0.0 2.0 0.00 0.00 0.00 76 1016.4
20260904051951 83 129 0.0 1.0 0.00 0.00 0.00 75 1016.6
20260904051448 83 164 0.0 0.0 0.00 0.00 0.00 77 1016.7
20260904050946 83 163 0.0 2.0 0.00 0.00 0.00 76 1016.5
20260904050443 83 166 0.0 0.0 0.00 0.00 0.00 75 1016.5
20260904045938 83 269 0.0 2.0 0.00 0.00 0.00 73 1016.5
20260904045432 84 230 0.0 2.0 0.00 0.00 0.00 74 1016.7
20260904044927 84 172 1.0 2.0 0.00 0.00 0.00 75 1016.4
20260904044423 84 269 0.0 0.0 0.00 0.00 0.00 72 1016.6
20260904043919 84 66 0.0 1.0 0.00 0.00 0.00 72 1016.5
20260904043416 84 348 0.0 1.0 0.00 0.00 0.00 72 1016.7
20260904042911 84 154 0.0 0.0 0.00 0.00 0.00 72 1016.7
20260904042407 85 154 0.0 2.0 0.00 0.00 0.00 74 1016.5
20260904041902 85 352 0.0 1.0 0.00 0.00 0.00 71 1016.6
20260904041358 84 351 0.0 1.0 0.00 0.00 0.00 72 1016.6
20260904040854 84 180 0.0 1.0 0.00 0.00 0.00 73 1016.6
20260904040348 84 161 1.0 1.0 0.00 0.00 0.00 75 1016.6
20260904035845 84 334 0.0 2.0 0.00 0.00 0.00 74 1016.5
20260904035341 85 25 0.0 1.0 0.00 0.00 0.00 72 1016.8
20260904034839 85 164 0.0 0.0 0.00 0.00 0.00 73 1016.7
20260904034334 86 38 0.0 2.0 0.00 0.00 0.00 72 1016.7
20260904033825 86 309 0.0 1.0 0.00 0.00 0.00 69 1016.6
20260904033321 86 124 0.0 2.0 0.00 0.00 0.00 69 1016.8
20260904032817 86 333 0.0 2.0 0.00 0.00 0.00 69 1016.7
20260904032317 86 157 0.0 0.0 0.00 0.00 0.00 67 1016.8
20260904031811 86 256 0.0 2.0 0.00 0.00 0.00 68 1016.6
20260904031307 86 255 0.0 2.0 0.00 0.00 0.00 70 1016.6
20260904030802 86 107 0.0 1.0 0.00 0.00 0.00 69 1016.7
20260904030258 86 164 0.0 2.0 0.00 0.00 0.00 69 1016.4
20260904025754 86 209 0.0 1.0 0.00 0.00 0.00 69 1016.7
20260904025249 86 329 0.0 2.0 0.00 0.00 0.00 69 1016.5
20260904024743 86 256 0.0 2.0 0.00 0.00 0.00 69 1016.5
20260904024238 85 184 0.0 2.0 0.00 0.00 0.00 70 1016.3
20260904023730 85 89 0.0 1.0 0.00 0.00 0.00 71 1016.5
20260904023225 85 229 0.0 2.0 0.00 0.00 0.00 70 1016.6
20260904022725 84 6 0.0 2.0 0.00 0.00 0.00 69 1016.3
20260904022222 84 268 1.0 2.0 0.00 0.00 0.00 70 1016.3
20260904021718 84 37 0.0 2.0 0.00 0.00 0.00 73 1016.2
20260904021218 83 142 0.0 1.0 0.00 0.00 0.00 75 1016.2
20260904020714 82 150 0.0 2.0 0.00 0.00 0.00 77 1016.2
20260904020213 83 180 0.0 1.0 0.00 0.00 0.00 76 1016.0
20260904015712 83 127 2.0 3.0 0.00 0.00 0.00 76 1016.1
20260904015207 84 129 0.0 1.0 0.00 0.00 0.00 72 1016.3
20260904014705 84 129 0.0 0.0 0.00 0.00 0.00 73 1016.0
20260904014200 84 96 0.0 1.0 0.00 0.00 0.00 74 1016.1
20260904013658 84 95 0.0 1.0 0.00 0.00 0.00 72 1016.0
20260904013153 84 129 0.0 1.0 0.00 0.00 0.00 72 1016.0
20260904012648 85 116 0.0 1.0 0.00 0.00 0.00 70 1015.8
20260904012147 85 89 0.0 1.0 0.00 0.00 0.00 70 1015.7
20260904011646 85 164 0.0 1.0 0.00 0.00 0.00 68 1015.7
20260904011142 86 117 0.0 0.0 0.00 0.00 0.00 68 1015.5
20260904010638 87 154 0.0 0.0 0.00 0.00 0.00 68 1015.6
20260904010134 87 230 0.0 0.0 0.00 0.00 0.00 67 1015.6
20260904005629 88 230 0.0 1.0 0.00 0.00 0.00 65 1015.6
20260904005124 89 142 0.0 1.0 0.00 0.00 0.00 65 1015.7
20260904004620 89 202 0.0 1.0 0.00 0.00 0.00 65 1015.5
20260904004119 89 230 0.0 1.0 0.00 0.00 0.00 65 1015.4
20260904003616 89 164 0.0 1.0 0.00 0.00 0.00 64 1015.2
20260904003111 90 89 0.0 1.0 0.00 0.00 0.00 62 1015.1
20260904002607 90 113 0.0 1.0 0.00 0.00 0.00 63 1015.1
20260904002102 91 322 0.0 2.0 0.00 0.00 0.00 62 1015.1
20260904001558 92 119 0.0 1.0 0.00 0.00 0.00 58 1015.4
20260904001056 93 124 0.0 1.0 0.00 0.00 0.00 57 1015.2
20260904000551 93 345 1.0 2.0 0.00 0.00 0.00 51 1015.1
20260904000047 94 269 0.0 1.0 0.00 0.00 0.00 56 1015.5
20260903235541 95 256 0.0 1.0 0.00 0.00 0.00 54 1015.1
20260903235037 95 322 0.0 1.0 0.00 0.00 0.00 53 1015.1
20260903234532 96 322 0.0 0.0 0.00 0.00 0.00 52 1014.9
20260903234028 96 309 0.0 1.0 0.00 0.00 0.00 52 1015.2
20260903233524 96 326 0.0 1.0 0.00 0.00 0.00 51 1015.4
20260903233019 96 154 0.0 2.0 0.00 0.00 0.00 46 1015.2
20260903232515 97 284 0.0 1.0 0.00 0.00 0.00 47 1015.1
20260903232015 97 192 1.0 3.0 0.00 0.00 0.00 46 1015.1
20260903231509 98 207 3.0 5.0 0.00 0.00 0.00 45 1015.1
20260903231004 97 44 0.0 1.0 0.00 0.00 0.00 44 1014.9
20260903230500 97 126 1.0 6.0 0.00 0.00 0.00 44 1015.1
20260903225956 97 283 0.0 4.0 0.00 0.00 0.00 51 1015.1
20260903225451 98 230 0.0 2.0 0.00 0.00 0.00 47 1014.9
20260903224948 100 218 1.0 4.0 0.00 0.00 0.00 42 1015.0
20260903224443 101 253 3.0 3.0 0.00 0.00 0.00 40 1014.9
20260903223939 101 287 0.0 2.0 0.00 0.00 0.00 43 1015.1
20260903223438 103 297 1.0 3.0 0.00 0.00 0.00 41 1015.2
20260903222937 101 293 0.0 2.0 0.00 0.00 0.00 43 1015.1
20260903222433 100 185 0.0 2.0 0.00 0.00 0.00 42 1015.2
20260903221931 104 212 0.0 2.0 0.00 0.00 0.00 39 1015.2
20260903221426 102 250 2.0 2.0 0.00 0.00 0.00 40 1015.0
20260903220923 104 254 1.0 2.0 0.00 0.00 0.00 40 1015.1
20260903220418 103 253 2.0 3.0 0.00 0.00 0.00 39 1015.2
20260903215915 101 198 2.0 8.0 0.00 0.00 0.00 41 1015.2
20260903215413 102 126 0.0 4.0 0.00 0.00 0.00 40 1015.4
20260903214911 101 126 4.0 5.0 0.00 0.00 0.00 42 1015.1
20260903214407 100 173 2.0 3.0 0.00 0.00 0.00 42 1015.1
20260903213907 101 292 2.0 2.0 0.00 0.00 0.00 42 1015.2
20260903213402 103 191 0.0 2.0 0.00 0.00 0.00 41 1015.4
20260903212858 100 233 0.0 2.0 0.00 0.00 0.00 42 1015.5
20260903212353 101 190 0.0 2.0 0.00 0.00 0.00 42 1015.2